Time,TemperatureF,DewpointF,PressureIn,WindDirection,WindDirectionDegrees,WindSpeedMPH,WindSpeedGustMPH,Humidity,HourlyPrecipIn,Conditions,Clouds,dailyrainin,SoftwareType,DateUTC
2013-08-07 00:00:00,59.6,49.4,30.10,North,-999,0.0,0.0,69,0.00,,,-99.99,WeatherLink 5.5,2013-08-07 04:00:00,
2013-08-07 00:05:00,59.2,49.4,30.10,North,-999,0.0,0.0,70,0.00,,,-99.99,WeatherLink 5.5,2013-08-07 04:05:00,
2013-08-07 00:10:00,58.9,49.5,30.10,North,-999,0.0,0.0,71,0.00,,,-99.99,WeatherLink 5.5,2013-08-07 04:10:00,
2013-08-07 00:15:00,58.9,49.5,30.10,North,-999,0.0,0.0,71,0.00,,,-99.99,WeatherLink 5.5,2013-08-07 04:15:00,
2013-08-07 00:20:00,58.4,49.8,30.10,North,-999,0.0,0.0,73,0.00,,,-99.99,WeatherLink 5.5,2013-08-07 04:20:00,
2013-08-07 00:25:00,58.3,49.7,30.10,North,-999,0.0,0.0,73,0.00,,,-99.99,WeatherLink 5.5,2013-08-07 04:25:00,
2013-08-07 00:30:00,58.3,49.7,30.10,North,-999,0.0,0.0,73,0.00,,,-99.99,WeatherLink 5.5,2013-08-07 04:30:00,
2013-08-07 00:35:00,58.1,49.9,30.10,North,-999,0.0,0.0,74,0.00,,,-99.99,WeatherLink 5.5,2013-08-07 04:35:00,
2013-08-07 00:40:00,58.0,49.8,30.10,North,-999,0.0,0.0,74,0.00,,,-99.99,WeatherLink 5.5,2013-08-07 04:40:00,
2013-08-07 00:45:00,58.0,49.8,30.10,North,-999,0.0,0.0,74,0.00,,,-99.99,WeatherLink 5.5,2013-08-07 04:45:00,
2013-08-07 00:50:00,57.8,49.9,30.10,North,-999,0.0,0.0,75,0.00,,,-99.99,WeatherLink 5.5,2013-08-07 04:50:00,
2013-08-07 00:55:00,57.7,49.8,30.10,North,-999,0.0,0.0,75,0.00,,,-99.99,WeatherLink 5.5,2013-08-07 04:55:00,
2013-08-07 01:00:00,57.7,49.8,30.10,North,-999,0.0,0.0,75,0.00,,,-99.99,WeatherLink 5.5,2013-08-07 05:00:00,
2013-08-07 01:05:00,57.3,49.8,30.10,North,-999,0.0,0.0,76,0.00,,,-99.99,WeatherLink 5.5,2013-08-07 05:05:00,
2013-08-07 01:10:00,57.2,49.7,30.10,North,-999,0.0,0.0,76,0.00,,,-99.99,WeatherLink 5.5,2013-08-07 05:10:00,
2013-08-07 01:15:00,57.2,49.7,30.10,North,-999,0.0,0.0,76,0.00,,,-99.99,WeatherLink 5.5,2013-08-07 05:15:00,
2013-08-07 01:20:00,57.0,49.5,30.10,North,-999,0.0,0.0,76,0.00,,,-99.99,WeatherLink 5.5,2013-08-07 05:20:00,
2013-08-07 01:25:00,56.9,49.4,30.10,North,-999,0.0,0.0,76,0.00,,,-99.99,WeatherLink 5.5,2013-08-07 05:25:00,
2013-08-07 01:30:00,56.9,49.4,30.10,North,-999,0.0,0.0,76,0.00,,,-99.99,WeatherLink 5.5,2013-08-07 05:30:00,
2013-08-07 01:35:00,56.6,49.5,30.11,North,-999,0.0,0.0,77,0.00,,,-99.99,WeatherLink 5.5,2013-08-07 05:35:00,
2013-08-07 01:40:00,56.4,49.6,30.11,North,-999,0.0,0.0,78,0.00,,,-99.99,WeatherLink 5.5,2013-08-07 05:40:00,
2013-08-07 01:45:00,56.4,49.6,30.11,North,-999,0.0,0.0,78,0.00,,,-99.99,WeatherLink 5.5,2013-08-07 05:45:00,
2013-08-07 01:50:00,56.3,49.5,30.11,North,-999,0.0,0.0,78,0.00,,,-99.99,WeatherLink 5.5,2013-08-07 05:50:00,
2013-08-07 01:55:00,56.2,49.8,30.11,North,-999,0.0,0.0,79,0.00,,,-99.99,WeatherLink 5.5,2013-08-07 05:55:00,
2013-08-07 02:00:00,56.2,49.8,30.11,North,-999,0.0,0.0,79,0.00,,,-99.99,WeatherLink 5.5,2013-08-07 06:00:00,
2013-08-07 02:05:00,55.9,49.5,30.11,North,-999,0.0,0.0,79,0.00,,,-99.99,WeatherLink 5.5,2013-08-07 06:05:00,
2013-08-07 02:10:00,55.9,49.8,30.11,North,-999,0.0,0.0,80,0.00,,,-99.99,WeatherLink 5.5,2013-08-07 06:10:00,
2013-08-07 02:15:00,55.9,49.8,30.11,North,-999,0.0,0.0,80,0.00,,,-99.99,WeatherLink 5.5,2013-08-07 06:15:00,
2013-08-07 02:20:00,55.7,49.6,30.11,North,-999,0.0,0.0,80,0.00,,,-99.99,WeatherLink 5.5,2013-08-07 06:20:00,
2013-08-07 02:25:00,55.6,49.5,30.11,North,-999,0.0,0.0,80,0.00,,,-99.99,WeatherLink 5.5,2013-08-07 06:25:00,
2013-08-07 02:30:00,55.6,49.5,30.11,North,-999,0.0,0.0,80,0.00,,,-99.99,WeatherLink 5.5,2013-08-07 06:30:00,
2013-08-07 02:35:00,55.4,49.3,30.12,North,-999,0.0,0.0,80,0.00,,,-99.99,WeatherLink 5.5,2013-08-07 06:35:00,
2013-08-07 02:40:00,55.3,49.6,30.12,North,-999,0.0,0.0,81,0.00,,,-99.99,WeatherLink 5.5,2013-08-07 06:40:00,
2013-08-07 02:45:00,55.3,49.6,30.12,North,-999,0.0,0.0,81,0.00,,,-99.99,WeatherLink 5.5,2013-08-07 06:45:00,
2013-08-07 02:50:00,55.1,49.4,30.12,North,-999,0.0,0.0,81,0.00,,,-99.99,WeatherLink 5.5,2013-08-07 06:50:00,
2013-08-07 02:55:00,55.0,49.3,30.12,North,-999,0.0,0.0,81,0.00,,,-99.99,WeatherLink 5.5,2013-08-07 06:55:00,
2013-08-07 03:00:00,55.0,49.3,30.12,North,-999,0.0,0.0,81,0.00,,,-99.99,WeatherLink 5.5,2013-08-07 07:00:00,
2013-08-07 03:05:00,54.8,49.1,30.12,North,-999,0.0,0.0,81,0.00,,,-99.99,WeatherLink 5.5,2013-08-07 07:05:00,
2013-08-07 03:10:00,54.7,49.0,30.12,North,-999,0.0,0.0,81,0.00,,,-99.99,WeatherLink 5.5,2013-08-07 07:10:00,
2013-08-07 03:15:00,54.7,49.0,30.12,North,-999,0.0,0.0,81,0.00,,,-99.99,WeatherLink 5.5,2013-08-07 07:15:00,
2013-08-07 03:20:00,54.4,48.7,30.12,North,-999,0.0,0.0,81,0.00,,,-99.99,WeatherLink 5.5,2013-08-07 07:20:00,
2013-08-07 03:25:00,54.4,49.0,30.12,North,-999,0.0,0.0,82,0.00,,,-99.99,WeatherLink 5.5,2013-08-07 07:25:00,
2013-08-07 03:30:00,54.4,49.0,30.12,North,-999,0.0,0.0,82,0.00,,,-99.99,WeatherLink 5.5,2013-08-07 07:30:00,
2013-08-07 03:35:00,54.4,49.0,30.12,North,-999,0.0,0.0,82,0.00,,,-99.99,WeatherLink 5.5,2013-08-07 07:35:00,
2013-08-07 03:40:00,54.2,48.8,30.12,North,-999,0.0,0.0,82,0.00,,,-99.99,WeatherLink 5.5,2013-08-07 07:40:00,
2013-08-07 03:45:00,54.2,48.8,30.12,North,-999,0.0,0.0,82,0.00,,,-99.99,WeatherLink 5.5,2013-08-07 07:45:00,
2013-08-07 03:50:00,54.1,48.7,30.12,North,-999,0.0,0.0,82,0.00,,,-99.99,WeatherLink 5.5,2013-08-07 07:50:00,
2013-08-07 03:55:00,54.1,48.7,30.12,North,-999,0.0,0.0,82,0.00,,,-99.99,WeatherLink 5.5,2013-08-07 07:55:00,
2013-08-07 04:00:00,54.1,48.7,30.12,North,-999,0.0,0.0,82,0.00,,,-99.99,WeatherLink 5.5,2013-08-07 08:00:00,
2013-08-07 04:05:00,54.1,48.7,30.12,North,-999,0.0,0.0,82,0.00,,,-99.99,WeatherLink 5.5,2013-08-07 08:05:00,
2013-08-07 04:10:00,53.9,48.5,30.12,North,-999,0.0,0.0,82,0.00,,,-99.99,WeatherLink 5.5,2013-08-07 08:10:00,
2013-08-07 04:15:00,53.9,48.5,30.12,North,-999,0.0,0.0,82,0.00,,,-99.99,WeatherLink 5.5,2013-08-07 08:15:00,
2013-08-07 04:20:00,53.9,48.5,30.13,North,-999,0.0,0.0,82,0.00,,,-99.99,WeatherLink 5.5,2013-08-07 08:20:00,
2013-08-07 04:25:00,53.8,48.4,30.13,North,-999,0.0,0.0,82,0.00,,,-99.99,WeatherLink 5.5,2013-08-07 08:25:00,
2013-08-07 04:30:00,53.8,48.4,30.13,North,-999,0.0,0.0,82,0.00,,,-99.99,WeatherLink 5.5,2013-08-07 08:30:00,
2013-08-07 04:35:00,53.6,48.2,30.13,North,-999,0.0,0.0,82,0.00,,,-99.99,WeatherLink 5.5,2013-08-07 08:35:00,
2013-08-07 04:40:00,53.6,48.6,30.13,North,-999,0.0,0.0,83,0.00,,,-99.99,WeatherLink 5.5,2013-08-07 08:40:00,
2013-08-07 04:45:00,53.6,48.6,30.13,North,-999,0.0,0.0,83,0.00,,,-99.99,WeatherLink 5.5,2013-08-07 08:45:00,
2013-08-07 04:50:00,53.5,48.5,30.13,North,-999,0.0,0.0,83,0.00,,,-99.99,WeatherLink 5.5,2013-08-07 08:50:00,
2013-08-07 04:55:00,53.3,48.3,30.13,North,-999,0.0,0.0,83,0.00,,,-99.99,WeatherLink 5.5,2013-08-07 08:55:00,
2013-08-07 05:00:00,53.3,48.3,30.13,North,-999,0.0,0.0,83,0.00,,,-99.99,WeatherLink 5.5,2013-08-07 09:00:00,
2013-08-07 05:05:00,53.3,48.3,30.13,North,-999,0.0,0.0,83,0.00,,,-99.99,WeatherLink 5.5,2013-08-07 09:05:00,
2013-08-07 05:10:00,53.3,48.3,30.13,North,-999,0.0,0.0,83,0.00,,,-99.99,WeatherLink 5.5,2013-08-07 09:10:00,
2013-08-07 05:15:00,53.3,48.3,30.13,North,-999,0.0,0.0,83,0.00,,,-99.99,WeatherLink 5.5,2013-08-07 09:15:00,
2013-08-07 05:20:00,53.2,48.2,30.13,North,-999,0.0,0.0,83,0.00,,,-99.99,WeatherLink 5.5,2013-08-07 09:20:00,
2013-08-07 05:25:00,53.2,48.2,30.13,North,-999,0.0,0.0,83,0.00,,,-99.99,WeatherLink 5.5,2013-08-07 09:25:00,
2013-08-07 05:30:00,53.2,48.2,30.13,North,-999,0.0,0.0,83,0.00,,,-99.99,WeatherLink 5.5,2013-08-07 09:30:00,
2013-08-07 05:35:00,53.0,48.0,30.14,North,-999,0.0,0.0,83,0.00,,,-99.99,WeatherLink 5.5,2013-08-07 09:35:00,
2013-08-07 05:40:00,53.0,48.0,30.14,North,-999,0.0,0.0,83,0.00,,,-99.99,WeatherLink 5.5,2013-08-07 09:40:00,
2013-08-07 05:45:00,53.0,48.0,30.14,North,-999,0.0,0.0,83,0.00,,,-99.99,WeatherLink 5.5,2013-08-07 09:45:00,
2013-08-07 05:50:00,52.9,47.9,30.14,North,-999,0.0,0.0,83,0.00,,,-99.99,WeatherLink 5.5,2013-08-07 09:50:00,
2013-08-07 05:55:00,52.9,47.9,30.14,North,-999,0.0,0.0,83,0.00,,,-99.99,WeatherLink 5.5,2013-08-07 09:55:00,
2013-08-07 06:00:00,52.9,47.9,30.14,North,-999,0.0,0.0,83,0.00,,,-99.99,WeatherLink 5.5,2013-08-07 10:00:00,
2013-08-07 06:05:00,52.9,48.5,30.14,North,-999,0.0,0.0,85,0.00,,,-99.99,WeatherLink 5.5,2013-08-07 10:05:00,
2013-08-07 06:10:00,52.9,48.2,30.14,North,-999,0.0,0.0,84,0.00,,,-99.99,WeatherLink 5.5,2013-08-07 10:10:00,
2013-08-07 06:15:00,52.9,48.2,30.14,North,-999,0.0,0.0,84,0.00,,,-99.99,WeatherLink 5.5,2013-08-07 10:15:00,
2013-08-07 06:20:00,53.0,48.3,30.14,North,-999,0.0,0.0,84,0.00,,,-99.99,WeatherLink 5.5,2013-08-07 10:20:00,
2013-08-07 06:25:00,53.2,48.5,30.14,North,-999,0.0,0.0,84,0.00,,,-99.99,WeatherLink 5.5,2013-08-07 10:25:00,
2013-08-07 06:30:00,53.2,48.5,30.14,North,-999,0.0,0.0,84,0.00,,,-99.99,WeatherLink 5.5,2013-08-07 10:30:00,
2013-08-07 06:35:00,53.3,48.6,30.14,North,-999,0.0,0.0,84,0.00,,,-99.99,WeatherLink 5.5,2013-08-07 10:35:00,
2013-08-07 06:40:00,53.6,48.9,30.14,North,-999,0.0,0.0,84,0.00,,,-99.99,WeatherLink 5.5,2013-08-07 10:40:00,
2013-08-07 06:45:00,53.6,48.9,30.14,North,-999,0.0,0.0,84,0.00,,,-99.99,WeatherLink 5.5,2013-08-07 10:45:00,
2013-08-07 06:50:00,54.4,49.7,30.14,North,-999,0.0,0.0,84,0.00,,,-99.99,WeatherLink 5.5,2013-08-07 10:50:00,
2013-08-07 06:55:00,54.8,50.7,30.14,North,-999,0.0,0.0,86,0.00,,,-99.99,WeatherLink 5.5,2013-08-07 10:55:00,
2013-08-07 07:00:00,54.8,50.7,30.14,North,-999,0.0,0.0,86,0.00,,,-99.99,WeatherLink 5.5,2013-08-07 11:00:00,
2013-08-07 07:05:00,55.7,50.9,30.14,North,-999,0.0,0.0,84,0.00,,,-99.99,WeatherLink 5.5,2013-08-07 11:05:00,
2013-08-07 07:10:00,56.0,51.2,30.14,North,-999,0.0,0.0,84,0.00,,,-99.99,WeatherLink 5.5,2013-08-07 11:10:00,
2013-08-07 07:15:00,56.0,51.2,30.14,North,-999,0.0,0.0,84,0.00,,,-99.99,WeatherLink 5.5,2013-08-07 11:15:00,
2013-08-07 07:20:00,57.0,52.2,30.14,North,-999,0.0,0.0,84,0.00,,,-99.99,WeatherLink 5.5,2013-08-07 11:20:00,
2013-08-07 07:25:00,57.7,52.9,30.14,North,-999,0.0,0.0,84,0.00,,,-99.99,WeatherLink 5.5,2013-08-07 11:25:00,
2013-08-07 07:30:00,57.7,52.9,30.14,North,-999,0.0,0.0,84,0.00,,,-99.99,WeatherLink 5.5,2013-08-07 11:30:00,
2013-08-07 07:35:00,58.9,53.4,30.14,North,-999,0.0,0.0,82,0.00,,,-99.99,WeatherLink 5.5,2013-08-07 11:35:00,
2013-08-07 07:40:00,59.3,53.1,30.14,North,-999,0.0,0.0,80,0.00,,,-99.99,WeatherLink 5.5,2013-08-07 11:40:00,
2013-08-07 07:45:00,59.3,53.1,30.14,North,-999,0.0,0.0,80,0.00,,,-99.99,WeatherLink 5.5,2013-08-07 11:45:00,
2013-08-07 07:50:00,59.6,52.7,30.14,North,-999,0.0,0.0,78,0.00,,,-99.99,WeatherLink 5.5,2013-08-07 11:50:00,
2013-08-07 07:55:00,59.6,52.4,30.14,North,-999,0.0,0.0,77,0.00,,,-99.99,WeatherLink 5.5,2013-08-07 11:55:00,
2013-08-07 08:00:00,59.6,52.4,30.14,North,-999,0.0,0.0,77,0.00,,,-99.99,WeatherLink 5.5,2013-08-07 12:00:00,
2013-08-07 08:05:00,60.4,52.8,30.15,North,-999,0.0,0.0,76,0.00,,,-99.99,WeatherLink 5.5,2013-08-07 12:05:00,
2013-08-07 08:10:00,60.7,53.1,30.15,North,-999,0.0,0.0,76,0.00,,,-99.99,WeatherLink 5.5,2013-08-07 12:10:00,
2013-08-07 08:15:00,60.7,53.1,30.15,North,-999,0.0,0.0,76,0.00,,,-99.99,WeatherLink 5.5,2013-08-07 12:15:00,
2013-08-07 08:20:00,61.8,53.8,30.14,North,-999,0.0,0.0,75,0.00,,,-99.99,WeatherLink 5.5,2013-08-07 12:20:00,
2013-08-07 08:25:00,62.4,54.0,30.14,North,-999,0.0,0.0,74,0.00,,,-99.99,WeatherLink 5.5,2013-08-07 12:25:00,
2013-08-07 08:30:00,62.4,54.0,30.14,North,-999,0.0,0.0,74,0.00,,,-99.99,WeatherLink 5.5,2013-08-07 12:30:00,
2013-08-07 08:35:00,63.4,54.6,30.14,North,-999,0.0,0.0,73,0.00,,,-99.99,WeatherLink 5.5,2013-08-07 12:35:00,
2013-08-07 08:40:00,64.0,54.8,30.14,North,-999,0.0,0.0,72,0.00,,,-99.99,WeatherLink 5.5,2013-08-07 12:40:00,
2013-08-07 08:45:00,64.0,54.8,30.14,North,-999,0.0,0.0,72,0.00,,,-99.99,WeatherLink 5.5,2013-08-07 12:45:00,
2013-08-07 08:50:00,65.0,55.0,30.14,North,-999,0.0,0.0,70,0.00,,,-99.99,WeatherLink 5.5,2013-08-07 12:50:00,
2013-08-07 08:55:00,65.7,55.2,30.14,North,-999,0.0,0.0,69,0.00,,,-99.99,WeatherLink 5.5,2013-08-07 12:55:00,
2013-08-07 09:00:00,65.7,55.2,30.14,North,-999,0.0,0.0,69,0.00,,,-99.99,WeatherLink 5.5,2013-08-07 13:00:00,
2013-08-07 09:05:00,66.5,55.2,30.14,North,-999,0.0,0.0,67,0.00,,,-99.99,WeatherLink 5.5,2013-08-07 13:05:00,
2013-08-07 09:10:00,66.8,54.7,30.14,North,-999,0.0,0.0,65,0.00,,,-99.99,WeatherLink 5.5,2013-08-07 13:10:00,
2013-08-07 09:15:00,66.8,54.7,30.14,North,-999,0.0,0.0,65,0.00,,,-99.99,WeatherLink 5.5,2013-08-07 13:15:00,
2013-08-07 09:20:00,67.6,55.4,30.14,North,-999,0.0,0.0,65,0.00,,,-99.99,WeatherLink 5.5,2013-08-07 13:20:00,
2013-08-07 09:25:00,67.6,55.4,30.14,North,-999,0.0,0.0,65,0.00,,,-99.99,WeatherLink 5.5,2013-08-07 13:25:00,
2013-08-07 09:30:00,67.6,55.4,30.14,North,-999,0.0,0.0,65,0.00,,,-99.99,WeatherLink 5.5,2013-08-07 13:30:00,
2013-08-07 09:35:00,67.6,55.4,30.14,North,-999,0.0,0.0,65,0.00,,,-99.99,WeatherLink 5.5,2013-08-07 13:35:00,
2013-08-07 09:40:00,68.0,55.8,30.14,North,-999,0.0,0.0,65,0.00,,,-99.99,WeatherLink 5.5,2013-08-07 13:40:00,
2013-08-07 09:45:00,68.0,55.8,30.14,North,-999,0.0,0.0,65,0.00,,,-99.99,WeatherLink 5.5,2013-08-07 13:45:00,
2013-08-07 09:50:00,69.0,55.9,30.14,ENE,67,0.0,1.0,63,0.00,,,-99.99,WeatherLink 5.5,2013-08-07 13:50:00,
2013-08-07 09:55:00,69.6,56.9,30.14,North,-999,0.0,0.0,64,0.00,,,-99.99,WeatherLink 5.5,2013-08-07 13:55:00,
2013-08-07 10:00:00,69.6,56.9,30.14,North,-999,0.0,0.0,64,0.00,,,-99.99,WeatherLink 5.5,2013-08-07 14:00:00,
2013-08-07 10:05:00,70.0,55.5,30.14,North,-999,0.0,0.0,60,0.00,,,-99.99,WeatherLink 5.5,2013-08-07 14:05:00,
2013-08-07 10:10:00,70.6,54.1,30.14,East,90,1.0,6.0,56,0.00,,,-99.99,WeatherLink 5.5,2013-08-07 14:10:00,
2013-08-07 10:15:00,70.6,54.1,30.14,East,90,1.0,6.0,56,0.00,,,-99.99,WeatherLink 5.5,2013-08-07 14:15:00,
2013-08-07 10:20:00,71.3,54.3,30.14,West,270,0.0,4.0,55,0.00,,,-99.99,WeatherLink 5.5,2013-08-07 14:20:00,
2013-08-07 10:25:00,71.5,53.5,30.14,WSW,247,0.0,7.0,53,0.00,,,-99.99,WeatherLink 5.5,2013-08-07 14:25:00,
2013-08-07 10:30:00,71.5,53.5,30.14,WSW,247,0.0,7.0,53,0.00,,,-99.99,WeatherLink 5.5,2013-08-07 14:30:00,
2013-08-07 10:35:00,71.7,53.1,30.13,SE,135,1.0,7.0,52,0.00,,,-99.99,WeatherLink 5.5,2013-08-07 14:35:00,
2013-08-07 10:40:00,72.0,53.4,30.13,ESE,112,0.0,4.0,52,0.00,,,-99.99,WeatherLink 5.5,2013-08-07 14:40:00,
2013-08-07 10:45:00,72.0,53.4,30.13,ESE,112,0.0,4.0,52,0.00,,,-99.99,WeatherLink 5.5,2013-08-07 14:45:00,
2013-08-07 10:50:00,72.4,52.7,30.13,WSW,247,1.0,4.0,50,0.00,,,-99.99,WeatherLink 5.5,2013-08-07 14:50:00,
2013-08-07 10:55:00,72.5,54.4,30.13,ESE,112,2.0,9.0,53,0.00,,,-99.99,WeatherLink 5.5,2013-08-07 14:55:00,
2013-08-07 11:00:00,72.5,54.4,30.13,ESE,112,2.0,9.0,53,0.00,,,-99.99,WeatherLink 5.5,2013-08-07 15:00:00,
2013-08-07 11:05:00,73.4,53.1,30.13,SE,135,0.0,1.0,49,0.00,,,-99.99,WeatherLink 5.5,2013-08-07 15:05:00,
2013-08-07 11:10:00,73.6,52.1,30.13,ENE,67,2.0,10.0,47,0.00,,,-99.99,WeatherLink 5.5,2013-08-07 15:10:00,
2013-08-07 11:15:00,73.6,52.1,30.13,ENE,67,2.0,10.0,47,0.00,,,-99.99,WeatherLink 5.5,2013-08-07 15:15:00,
2013-08-07 11:20:00,74.1,52.0,30.13,ESE,112,1.0,7.0,46,0.00,,,-99.99,WeatherLink 5.5,2013-08-07 15:20:00,
2013-08-07 11:25:00,74.4,51.7,30.13,SE,135,1.0,6.0,45,0.00,,,-99.99,WeatherLink 5.5,2013-08-07 15:25:00,
2013-08-07 11:30:00,74.4,51.7,30.13,SE,135,1.0,6.0,45,0.00,,,-99.99,WeatherLink 5.5,2013-08-07 15:30:00,
2013-08-07 11:35:00,74.8,52.6,30.13,SE,135,1.0,6.0,46,0.00,,,-99.99,WeatherLink 5.5,2013-08-07 15:35:00,
2013-08-07 11:40:00,74.8,50.8,30.13,ESE,112,1.0,7.0,43,0.00,,,-99.99,WeatherLink 5.5,2013-08-07 15:40:00,
2013-08-07 11:45:00,74.8,50.8,30.13,ESE,112,1.0,7.0,43,0.00,,,-99.99,WeatherLink 5.5,2013-08-07 15:45:00,
2013-08-07 11:50:00,75.5,47.4,30.12,East,90,1.0,9.0,37,0.00,,,-99.99,WeatherLink 5.5,2013-08-07 15:50:00,
2013-08-07 11:55:00,76.0,51.2,30.12,ENE,67,0.0,1.0,42,0.00,,,-99.99,WeatherLink 5.5,2013-08-07 15:55:00,
2013-08-07 12:00:00,76.0,51.2,30.12,ENE,67,0.0,1.0,42,0.00,,,-99.99,WeatherLink 5.5,2013-08-07 16:00:00,
2013-08-07 12:05:00,76.0,47.1,30.12,SE,135,2.0,9.0,36,0.00,,,-99.99,WeatherLink 5.5,2013-08-07 16:05:00,
2013-08-07 12:10:00,75.8,46.2,30.12,SE,135,4.0,10.0,35,0.00,,,-99.99,WeatherLink 5.5,2013-08-07 16:10:00,
2013-08-07 12:15:00,75.8,46.2,30.12,SE,135,4.0,10.0,35,0.00,,,-99.99,WeatherLink 5.5,2013-08-07 16:15:00,
2013-08-07 12:20:00,76.5,49.0,30.11,ENE,67,2.0,9.0,38,0.00,,,-99.99,WeatherLink 5.5,2013-08-07 16:20:00,
2013-08-07 12:25:00,76.2,45.8,30.11,ESE,112,3.0,11.0,34,0.00,,,-99.99,WeatherLink 5.5,2013-08-07 16:25:00,
2013-08-07 12:30:00,76.2,45.8,30.11,ESE,112,3.0,11.0,34,0.00,,,-99.99,WeatherLink 5.5,2013-08-07 16:30:00,
2013-08-07 12:35:00,76.7,50.6,30.11,SE,135,2.0,8.0,40,0.00,,,-99.99,WeatherLink 5.5,2013-08-07 16:35:00,
2013-08-07 12:40:00,76.9,48.6,30.11,ESE,112,3.0,9.0,37,0.00,,,-99.99,WeatherLink 5.5,2013-08-07 16:40:00,
2013-08-07 12:45:00,76.9,48.6,30.11,ESE,112,3.0,9.0,37,0.00,,,-99.99,WeatherLink 5.5,2013-08-07 16:45:00,
2013-08-07 12:50:00,76.9,47.2,30.11,SE,135,4.0,9.0,35,0.00,,,-99.99,WeatherLink 5.5,2013-08-07 16:50:00,
2013-08-07 12:55:00,77.1,49.5,30.11,NNE,22,2.0,8.0,38,0.00,,,-99.99,WeatherLink 5.5,2013-08-07 16:55:00,
2013-08-07 13:00:00,77.1,49.5,30.11,NNE,22,2.0,8.0,38,0.00,,,-99.99,WeatherLink 5.5,2013-08-07 17:00:00,
2013-08-07 13:05:00,76.9,44.0,30.11,ESE,112,4.0,11.0,31,0.00,,,-99.99,WeatherLink 5.5,2013-08-07 17:05:00,
2013-08-07 13:10:00,77.1,44.1,30.11,ESE,112,3.0,10.0,31,0.00,,,-99.99,WeatherLink 5.5,2013-08-07 17:10:00,
2013-08-07 13:15:00,77.1,44.1,30.11,ESE,112,3.0,10.0,31,0.00,,,-99.99,WeatherLink 5.5,2013-08-07 17:15:00,
2013-08-07 13:20:00,77.3,44.3,30.11,SE,135,4.0,11.0,31,0.00,,,-99.99,WeatherLink 5.5,2013-08-07 17:20:00,
2013-08-07 13:25:00,77.6,48.5,30.11,ESE,112,2.0,7.0,36,0.00,,,-99.99,WeatherLink 5.5,2013-08-07 17:25:00,
2013-08-07 13:30:00,77.6,48.5,30.11,ESE,112,2.0,7.0,36,0.00,,,-99.99,WeatherLink 5.5,2013-08-07 17:30:00,
2013-08-07 13:35:00,78.3,50.6,30.10,SE,135,0.0,6.0,38,0.00,,,-99.99,WeatherLink 5.5,2013-08-07 17:35:00,
2013-08-07 13:40:00,78.5,49.3,30.10,SE,135,2.0,13.0,36,0.00,,,-99.99,WeatherLink 5.5,2013-08-07 17:40:00,
2013-08-07 13:45:00,78.5,49.3,30.10,SE,135,2.0,13.0,36,0.00,,,-99.99,WeatherLink 5.5,2013-08-07 17:45:00,
2013-08-07 13:50:00,78.0,46.6,30.11,SE,135,3.0,9.0,33,0.00,,,-99.99,WeatherLink 5.5,2013-08-07 17:50:00,
2013-08-07 13:55:00,78.0,47.4,30.11,ENE,67,1.0,8.0,34,0.00,,,-99.99,WeatherLink 5.5,2013-08-07 17:55:00,
2013-08-07 14:00:00,78.0,47.4,30.11,ENE,67,1.0,8.0,34,0.00,,,-99.99,WeatherLink 5.5,2013-08-07 18:00:00,
2013-08-07 14:05:00,78.0,46.6,30.10,East,90,2.0,7.0,33,0.00,,,-99.99,WeatherLink 5.5,2013-08-07 18:05:00,
2013-08-07 14:10:00,78.2,45.1,30.10,SE,135,1.0,10.0,31,0.00,,,-99.99,WeatherLink 5.5,2013-08-07 18:10:00,
2013-08-07 14:15:00,78.2,45.1,30.10,SE,135,1.0,10.0,31,0.00,,,-99.99,WeatherLink 5.5,2013-08-07 18:15:00,
2013-08-07 14:20:00,78.3,45.2,30.10,SSE,157,2.0,10.0,31,0.00,,,-99.99,WeatherLink 5.5,2013-08-07 18:20:00,
2013-08-07 14:25:00,78.5,47.0,30.10,SE,135,2.0,9.0,33,0.00,,,-99.99,WeatherLink 5.5,2013-08-07 18:25:00,
2013-08-07 14:30:00,78.5,47.0,30.10,SE,135,2.0,9.0,33,0.00,,,-99.99,WeatherLink 5.5,2013-08-07 18:30:00,
2013-08-07 14:35:00,78.3,48.4,30.10,SE,135,2.0,7.0,35,0.00,,,-99.99,WeatherLink 5.5,2013-08-07 18:35:00,
2013-08-07 14:40:00,77.8,44.7,30.10,ESE,112,6.0,13.0,31,0.00,,,-99.99,WeatherLink 5.5,2013-08-07 18:40:00,
2013-08-07 14:45:00,77.8,44.7,30.10,ESE,112,6.0,13.0,31,0.00,,,-99.99,WeatherLink 5.5,2013-08-07 18:45:00,
2013-08-07 14:50:00,77.6,46.2,30.10,East,90,2.0,8.0,33,0.00,,,-99.99,WeatherLink 5.5,2013-08-07 18:50:00,
2013-08-07 14:55:00,78.0,46.6,30.10,East,90,4.0,13.0,33,0.00,,,-99.99,WeatherLink 5.5,2013-08-07 18:55:00,
2013-08-07 15:00:00,78.0,46.6,30.10,East,90,4.0,13.0,33,0.00,,,-99.99,WeatherLink 5.5,2013-08-07 19:00:00,
2013-08-07 15:05:00,78.0,44.9,30.09,ENE,67,4.0,9.0,31,0.00,,,-99.99,WeatherLink 5.5,2013-08-07 19:05:00,
2013-08-07 15:10:00,78.0,45.7,30.09,SE,135,2.0,11.0,32,0.00,,,-99.99,WeatherLink 5.5,2013-08-07 19:10:00,
2013-08-07 15:15:00,78.0,45.7,30.09,SE,135,2.0,11.0,32,0.00,,,-99.99,WeatherLink 5.5,2013-08-07 19:15:00,
2013-08-07 15:20:00,78.3,46.0,30.09,NNE,22,1.0,8.0,32,0.00,,,-99.99,WeatherLink 5.5,2013-08-07 19:20:00,
2013-08-07 15:25:00,78.2,45.1,30.09,ENE,67,1.0,6.0,31,0.00,,,-99.99,WeatherLink 5.5,2013-08-07 19:25:00,
2013-08-07 15:30:00,78.2,45.1,30.09,ENE,67,1.0,6.0,31,0.00,,,-99.99,WeatherLink 5.5,2013-08-07 19:30:00,
2013-08-07 15:35:00,78.0,43.2,30.09,SE,135,7.0,13.0,29,0.00,,,-99.99,WeatherLink 5.5,2013-08-07 19:35:00,
2013-08-07 15:40:00,77.8,42.1,30.09,ESE,112,4.0,17.0,28,0.00,,,-99.99,WeatherLink 5.5,2013-08-07 19:40:00,
2013-08-07 15:45:00,77.8,42.1,30.09,ESE,112,4.0,17.0,28,0.00,,,-99.99,WeatherLink 5.5,2013-08-07 19:45:00,
2013-08-07 15:50:00,77.6,42.8,30.09,ESE,112,4.0,8.0,29,0.00,,,-99.99,WeatherLink 5.5,2013-08-07 19:50:00,
2013-08-07 15:55:00,77.8,43.9,30.09,ESE,112,2.0,10.0,30,0.00,,,-99.99,WeatherLink 5.5,2013-08-07 19:55:00,
2013-08-07 16:00:00,77.8,43.9,30.09,ESE,112,2.0,10.0,30,0.00,,,-99.99,WeatherLink 5.5,2013-08-07 20:00:00,
2013-08-07 16:05:00,77.8,42.1,30.09,SE,135,4.0,10.0,28,0.00,,,-99.99,WeatherLink 5.5,2013-08-07 20:05:00,
2013-08-07 16:10:00,77.8,42.1,30.09,ENE,67,1.0,6.0,28,0.00,,,-99.99,WeatherLink 5.5,2013-08-07 20:10:00,
2013-08-07 16:15:00,77.8,42.1,30.09,ENE,67,1.0,6.0,28,0.00,,,-99.99,WeatherLink 5.5,2013-08-07 20:15:00,
2013-08-07 16:20:00,78.2,42.4,30.08,SE,135,2.0,10.0,28,0.00,,,-99.99,WeatherLink 5.5,2013-08-07 20:20:00,
2013-08-07 16:25:00,78.2,41.5,30.08,SE,135,3.0,9.0,27,0.00,,,-99.99,WeatherLink 5.5,2013-08-07 20:25:00,
2013-08-07 16:30:00,78.2,41.5,30.08,SE,135,3.0,9.0,27,0.00,,,-99.99,WeatherLink 5.5,2013-08-07 20:30:00,
2013-08-07 16:35:00,78.3,42.5,30.08,SE,135,3.0,13.0,28,0.00,,,-99.99,WeatherLink 5.5,2013-08-07 20:35:00,
2013-08-07 16:40:00,78.3,42.5,30.08,ESE,112,3.0,11.0,28,0.00,,,-99.99,WeatherLink 5.5,2013-08-07 20:40:00,
2013-08-07 16:45:00,78.3,42.5,30.08,ESE,112,3.0,11.0,28,0.00,,,-99.99,WeatherLink 5.5,2013-08-07 20:45:00,
2013-08-07 16:50:00,78.2,43.3,30.07,ESE,112,0.0,8.0,29,0.00,,,-99.99,WeatherLink 5.5,2013-08-07 20:50:00,
2013-08-07 16:55:00,78.0,44.0,30.07,ESE,112,1.0,9.0,30,0.00,,,-99.99,WeatherLink 5.5,2013-08-07 20:55:00,
2013-08-07 17:00:00,78.0,44.0,30.07,ESE,112,1.0,9.0,30,0.00,,,-99.99,WeatherLink 5.5,2013-08-07 21:00:00,
2013-08-07 17:05:00,77.4,43.5,30.07,SE,135,3.0,9.0,30,0.00,,,-99.99,WeatherLink 5.5,2013-08-07 21:05:00,
2013-08-07 17:10:00,77.4,43.5,30.07,SE,135,3.0,10.0,30,0.00,,,-99.99,WeatherLink 5.5,2013-08-07 21:10:00,
2013-08-07 17:15:00,77.4,43.5,30.07,SE,135,3.0,10.0,30,0.00,,,-99.99,WeatherLink 5.5,2013-08-07 21:15:00,
2013-08-07 17:20:00,78.0,44.0,30.07,ESE,112,1.0,6.0,30,0.00,,,-99.99,WeatherLink 5.5,2013-08-07 21:20:00,
2013-08-07 17:25:00,77.8,43.9,30.07,East,90,2.0,8.0,30,0.00,,,-99.99,WeatherLink 5.5,2013-08-07 21:25:00,
2013-08-07 17:30:00,77.8,43.9,30.07,East,90,2.0,8.0,30,0.00,,,-99.99,WeatherLink 5.5,2013-08-07 21:30:00,
2013-08-07 17:35:00,77.3,46.7,30.06,ENE,67,0.0,1.0,34,0.00,,,-99.99,WeatherLink 5.5,2013-08-07 21:35:00,
2013-08-07 17:40:00,76.9,44.8,30.06,ENE,67,0.0,1.0,32,0.00,,,-99.99,WeatherLink 5.5,2013-08-07 21:40:00,
2013-08-07 17:45:00,76.9,44.8,30.06,ENE,67,0.0,1.0,32,0.00,,,-99.99,WeatherLink 5.5,2013-08-07 21:45:00,
2013-08-07 17:50:00,76.5,44.4,30.06,SE,135,0.0,1.0,32,0.00,,,-99.99,WeatherLink 5.5,2013-08-07 21:50:00,
2013-08-07 17:55:00,76.4,45.9,30.06,SE,135,0.0,6.0,34,0.00,,,-99.99,WeatherLink 5.5,2013-08-07 21:55:00,
2013-08-07 18:00:00,76.4,45.9,30.06,SE,135,0.0,6.0,34,0.00,,,-99.99,WeatherLink 5.5,2013-08-07 22:00:00,
2013-08-07 18:05:00,76.4,45.9,30.06,SE,135,1.0,7.0,34,0.00,,,-99.99,WeatherLink 5.5,2013-08-07 22:05:00,
2013-08-07 18:10:00,76.5,47.6,30.06,SE,135,1.0,6.0,36,0.00,,,-99.99,WeatherLink 5.5,2013-08-07 22:10:00,
2013-08-07 18:15:00,76.5,47.6,30.06,SE,135,1.0,6.0,36,0.00,,,-99.99,WeatherLink 5.5,2013-08-07 22:15:00,
2013-08-07 18:20:00,76.4,46.7,30.06,ESE,112,1.0,7.0,35,0.00,,,-99.99,WeatherLink 5.5,2013-08-07 22:20:00,
2013-08-07 18:25:00,76.2,45.8,30.06,East,90,0.0,1.0,34,0.00,,,-99.99,WeatherLink 5.5,2013-08-07 22:25:00,
2013-08-07 18:30:00,76.2,45.8,30.06,East,90,0.0,1.0,34,0.00,,,-99.99,WeatherLink 5.5,2013-08-07 22:30:00,
2013-08-07 18:35:00,75.8,46.2,30.05,ESE,112,0.0,2.0,35,0.00,,,-99.99,WeatherLink 5.5,2013-08-07 22:35:00,
2013-08-07 18:40:00,75.5,46.7,30.05,SE,135,2.0,8.0,36,0.00,,,-99.99,WeatherLink 5.5,2013-08-07 22:40:00,
2013-08-07 18:45:00,75.5,46.7,30.05,SE,135,2.0,8.0,36,0.00,,,-99.99,WeatherLink 5.5,2013-08-07 22:45:00,
2013-08-07 18:50:00,74.6,47.3,30.06,SE,135,0.0,1.0,38,0.00,,,-99.99,WeatherLink 5.5,2013-08-07 22:50:00,
2013-08-07 18:55:00,74.3,47.7,30.06,SE,135,1.0,6.0,39,0.00,,,-99.99,WeatherLink 5.5,2013-08-07 22:55:00,
2013-08-07 19:00:00,74.3,47.7,30.06,SE,135,1.0,6.0,39,0.00,,,-99.99,WeatherLink 5.5,2013-08-07 23:00:00,
2013-08-07 19:05:00,73.7,47.9,30.06,ESE,112,1.0,6.0,40,0.00,,,-99.99,WeatherLink 5.5,2013-08-07 23:05:00,
2013-08-07 19:10:00,73.6,48.4,30.06,North,-999,0.0,0.0,41,0.00,,,-99.99,WeatherLink 5.5,2013-08-07 23:10:00,
2013-08-07 19:15:00,73.6,48.4,30.06,North,-999,0.0,0.0,41,0.00,,,-99.99,WeatherLink 5.5,2013-08-07 23:15:00,
2013-08-07 19:20:00,73.0,48.5,30.06,ESE,112,0.0,1.0,42,0.00,,,-99.99,WeatherLink 5.5,2013-08-07 23:20:00,
2013-08-07 19:25:00,72.9,48.5,30.06,ESE,112,0.0,1.0,42,0.00,,,-99.99,WeatherLink 5.5,2013-08-07 23:25:00,
2013-08-07 19:30:00,72.9,48.5,30.06,ESE,112,0.0,1.0,42,0.00,,,-99.99,WeatherLink 5.5,2013-08-07 23:30:00,
2013-08-07 19:35:00,72.4,49.3,30.06,North,-999,0.0,0.0,44,0.00,,,-99.99,WeatherLink 5.5,2013-08-07 23:35:00,
2013-08-07 19:40:00,72.0,49.5,30.06,ESE,112,0.0,2.0,45,0.00,,,-99.99,WeatherLink 5.5,2013-08-07 23:40:00,
2013-08-07 19:45:00,72.0,49.5,30.06,ESE,112,0.0,2.0,45,0.00,,,-99.99,WeatherLink 5.5,2013-08-07 23:45:00,
2013-08-07 19:50:00,71.3,50.0,30.06,ESE,112,0.0,2.0,47,0.00,,,-99.99,WeatherLink 5.5,2013-08-07 23:50:00,
2013-08-07 19:55:00,71.2,49.9,30.06,ESE,112,0.0,1.0,47,0.00,,,-99.99,WeatherLink 5.5,2013-08-07 23:55:00,
2013-08-07 20:00:00,71.2,49.9,30.06,ESE,112,0.0,1.0,47,0.00,,,-99.99,WeatherLink 5.5,2013-08-08 00:00:00,
2013-08-07 20:05:00,70.6,50.0,30.06,SE,135,1.0,8.0,48,0.00,,,-99.99,WeatherLink 5.5,2013-08-08 00:05:00,
2013-08-07 20:10:00,70.3,50.2,30.06,SE,135,0.0,6.0,49,0.00,,,-99.99,WeatherLink 5.5,2013-08-08 00:10:00,
2013-08-07 20:15:00,70.3,50.2,30.06,SE,135,0.0,6.0,49,0.00,,,-99.99,WeatherLink 5.5,2013-08-08 00:15:00,
2013-08-07 20:20:00,70.1,50.0,30.06,North,-999,0.0,0.0,49,0.00,,,-99.99,WeatherLink 5.5,2013-08-08 00:20:00,
2013-08-07 20:25:00,70.0,50.0,30.06,ESE,112,0.0,4.0,49,0.00,,,-99.99,WeatherLink 5.5,2013-08-08 00:25:00,
2013-08-07 20:30:00,70.0,50.0,30.06,ESE,112,0.0,4.0,49,0.00,,,-99.99,WeatherLink 5.5,2013-08-08 00:30:00,
2013-08-07 20:35:00,69.6,49.6,30.07,ESE,112,1.0,7.0,49,0.00,,,-99.99,WeatherLink 5.5,2013-08-08 00:35:00,
2013-08-07 20:40:00,69.5,50.0,30.07,SE,135,0.0,4.0,50,0.00,,,-99.99,WeatherLink 5.5,2013-08-08 00:40:00,
2013-08-07 20:45:00,69.5,50.0,30.07,SE,135,0.0,4.0,50,0.00,,,-99.99,WeatherLink 5.5,2013-08-08 00:45:00,
2013-08-07 20:50:00,69.3,50.4,30.07,SE,135,1.0,9.0,51,0.00,,,-99.99,WeatherLink 5.5,2013-08-08 00:50:00,
2013-08-07 20:55:00,69.3,50.4,30.07,SE,135,1.0,6.0,51,0.00,,,-99.99,WeatherLink 5.5,2013-08-08 00:55:00,
2013-08-07 21:00:00,69.3,50.4,30.07,SE,135,1.0,6.0,51,0.00,,,-99.99,WeatherLink 5.5,2013-08-08 01:00:00,
2013-08-07 21:05:00,69.0,50.6,30.07,SE,135,1.0,8.0,52,0.00,,,-99.99,WeatherLink 5.5,2013-08-08 01:05:00,
2013-08-07 21:10:00,68.8,50.5,30.07,East,90,1.0,7.0,52,0.00,,,-99.99,WeatherLink 5.5,2013-08-08 01:10:00,
2013-08-07 21:15:00,68.8,50.5,30.07,East,90,1.0,7.0,52,0.00,,,-99.99,WeatherLink 5.5,2013-08-08 01:15:00,
2013-08-07 21:20:00,68.3,50.5,30.07,East,90,0.0,8.0,53,0.00,,,-99.99,WeatherLink 5.5,2013-08-08 01:20:00,
2013-08-07 21:25:00,68.1,50.8,30.07,ESE,112,0.0,4.0,54,0.00,,,-99.99,WeatherLink 5.5,2013-08-08 01:25:00,
2013-08-07 21:30:00,68.1,50.8,30.07,ESE,112,0.0,4.0,54,0.00,,,-99.99,WeatherLink 5.5,2013-08-08 01:30:00,
2013-08-07 21:35:00,67.8,51.0,30.07,SE,135,1.0,8.0,55,0.00,,,-99.99,WeatherLink 5.5,2013-08-08 01:35:00,
2013-08-07 21:40:00,67.8,51.0,30.07,ESE,112,1.0,8.0,55,0.00,,,-99.99,WeatherLink 5.5,2013-08-08 01:40:00,
2013-08-07 21:45:00,67.8,51.0,30.07,ESE,112,1.0,8.0,55,0.00,,,-99.99,WeatherLink 5.5,2013-08-08 01:45:00,
2013-08-07 21:50:00,67.6,51.3,30.07,ESE,112,1.0,4.0,56,0.00,,,-99.99,WeatherLink 5.5,2013-08-08 01:50:00,
2013-08-07 21:55:00,67.5,51.2,30.07,SE,135,1.0,10.0,56,0.00,,,-99.99,WeatherLink 5.5,2013-08-08 01:55:00,
2013-08-07 22:00:00,67.5,51.2,30.07,SE,135,1.0,10.0,56,0.00,,,-99.99,WeatherLink 5.5,2013-08-08 02:00:00,
2013-08-07 22:05:00,67.5,51.7,30.07,ESE,112,3.0,11.0,57,0.00,,,-99.99,WeatherLink 5.5,2013-08-08 02:05:00,
2013-08-07 22:10:00,67.5,51.7,30.07,SE,135,1.0,11.0,57,0.00,,,-99.99,WeatherLink 5.5,2013-08-08 02:10:00,
2013-08-07 22:15:00,67.5,51.7,30.07,SE,135,1.0,11.0,57,0.00,,,-99.99,WeatherLink 5.5,2013-08-08 02:15:00,
2013-08-07 22:20:00,67.3,52.5,30.07,ENE,67,1.0,7.0,59,0.00,,,-99.99,WeatherLink 5.5,2013-08-08 02:20:00,
2013-08-07 22:25:00,67.3,52.9,30.07,East,90,2.0,7.0,60,0.00,,,-99.99,WeatherLink 5.5,2013-08-08 02:25:00,
2013-08-07 22:30:00,67.3,52.9,30.07,East,90,2.0,7.0,60,0.00,,,-99.99,WeatherLink 5.5,2013-08-08 02:30:00,
2013-08-07 22:35:00,67.1,52.7,30.07,ESE,112,0.0,4.0,60,0.00,,,-99.99,WeatherLink 5.5,2013-08-08 02:35:00,
2013-08-07 22:45:00,67.0,53.1,30.07,East,90,0.0,2.0,61,0.00,,,-99.99,WeatherLink 5.5,2013-08-08 02:45:00,
2013-08-07 22:50:00,66.8,53.4,30.08,ESE,112,1.0,6.0,62,0.00,,,-99.99,WeatherLink 5.5,2013-08-08 02:50:00,
2013-08-07 22:55:00,66.6,53.6,30.08,North,-999,0.0,0.0,63,0.00,,,-99.99,WeatherLink 5.5,2013-08-08 02:55:00,
2013-08-07 23:00:00,66.6,53.6,30.08,North,-999,0.0,0.0,63,0.00,,,-99.99,WeatherLink 5.5,2013-08-08 03:00:00,
2013-08-07 23:05:00,66.5,53.5,30.08,ESE,112,0.0,1.0,63,0.00,,,-99.99,WeatherLink 5.5,2013-08-08 03:05:00,
2013-08-07 23:10:00,66.5,53.5,30.08,SE,135,0.0,4.0,63,0.00,,,-99.99,WeatherLink 5.5,2013-08-08 03:10:00,
2013-08-07 23:15:00,66.5,53.5,30.08,SE,135,0.0,4.0,63,0.00,,,-99.99,WeatherLink 5.5,2013-08-08 03:15:00,
2013-08-07 23:20:00,66.3,53.8,30.07,East,90,0.0,4.0,64,0.00,,,-99.99,WeatherLink 5.5,2013-08-08 03:20:00,
2013-08-07 23:25:00,66.1,53.6,30.07,SE,135,0.0,6.0,64,0.00,,,-99.99,WeatherLink 5.5,2013-08-08 03:25:00,
2013-08-07 23:30:00,66.1,53.6,30.07,SE,135,0.0,6.0,64,0.00,,,-99.99,WeatherLink 5.5,2013-08-08 03:30:00,
2013-08-07 23:35:00,66.0,53.9,30.07,SE,135,0.0,7.0,65,0.00,,,-99.99,WeatherLink 5.5,2013-08-08 03:35:00,
2013-08-07 23:40:00,66.0,53.9,30.07,SE,135,0.0,2.0,65,0.00,,,-99.99,WeatherLink 5.5,2013-08-08 03:40:00,
2013-08-07 23:45:00,66.0,53.9,30.07,SE,135,0.0,2.0,65,0.00,,,-99.99,WeatherLink 5.5,2013-08-08 03:45:00,
2013-08-07 23:50:00,66.0,53.9,30.07,SE,135,0.0,1.0,65,0.00,,,-99.99,WeatherLink 5.5,2013-08-08 03:50:00,
2013-08-07 23:55:00,66.0,53.5,30.07,ESE,112,1.0,8.0,64,0.00,,,-99.99,WeatherLink 5.5,2013-08-08 03:55:00,